Location: Balmoral
(33.0667°S, 151.5833°E)
Time: 03:35:03
(UTC+00:00)

NOAA 6 - Visible Passes

Search period start: 26 January 2021 00:00
Search period end: 05 February 2021 00:00
Orbit: 773 x 786 km, 98.7° (Epoch: 25 January)

Date Brightness Start Highest point End Pass type
(mag) Time Alt. Az. Time Alt. Az. Time Alt. Az.
26 Jan 6.6 18:13:03 10° ENE 18:17:12 25° ESE 18:21:22 10° SSE visible
27 Jan 7.4 17:43:13 10° E 17:45:02 12° ESE 17:46:52 10° SE visible
28 Jan 5.1 18:46:06 10° NNE 18:51:08 54° ESE 18:56:12 10° S visible
29 Jan 6.6 18:14:36 10° ENE 18:18:48 26° ESE 18:23:01 10° SSE visible
30 Jan 7.4 17:44:37 10° E 17:46:38 12° ESE 17:48:37 10° SE visible
31 Jan 7.6 09:16:51 10° SW 09:19:27 14° WSW 09:22:02 10° W visible
01 Feb 6.5 18:16:08 10° NE 18:20:23 26° ESE 18:24:39 10° SSE visible
02 Feb 7.4 17:46:02 10° E 17:48:12 13° ESE 17:50:21 10° SE visible
03 Feb 7.6 09:18:33 10° SW 09:21:02 14° WSW 09:23:29 10° W visible
03 Feb 4.9 18:49:16 10° NNE 18:54:19 57° ESE 18:59:25 10° S visible
04 Feb 6.4 18:17:40 10° NE 18:21:58 27° ESE 18:26:17 10° SSE visible
